OPS 4682 DEB, 20031

Orbit data source: Space-Track

OPS 4682 DEB, 20031 is space debris in LEO originally from a launch on Sat, 03 Apr 1965 UTC launched from the Air Force Western Test Range (AFWTR). Debris objects in space refer to the collection of defunct objects orbiting the Earth. Examples of debris include non-operational satellites, rocket bodies, and fragments generated from explosions, collisions, or faulty payload assembly.

Loading next visibility...
Identifier
20031, 1965-027BB
Orbit
LEO
Country
Flag of USUS
Related business
Manufacturer
Unknown
Mission
Spacecraft
Bus & Motor
Unknown
Mass
Unknown
Launch date (UTC)
1965-04-03 (61 years ago)
Launch vehicle
Unknown
Launch site
Air Force Western Test Range (AFWTR)
Object type
Payload
Rocket body
Debris
Shape & HBR
Unknown shape, 0.1 m
Radar Cross Section
Small (<0.1 m²)

Expand to show TLE details & history
Last TLE update: 15 hours ago

TLE from 15 hours ago
0 OPS 4682 DEB
1 20031U 65027BB  25349.95217561  .00000541  00000-0  18227-2 0  9997
2 20031  90.2283 355.4155 0032162 174.7194 211.7754 12.97856654743449
Epoch: 2025-12-15T22:51Z
TLE epoch observation values (Epoch: 2025-12-15T22:51:07.972Z)
Latitude
26.33191°
Longitude
-72.32351°
Altitude
1,294.634 km
Speed
7.201 km/s
True Right ascension
23h 41m 12s
True Declination
26° 12' 18"
Sunlit
Object was in daylight at epoch
Visualization orbit readout
Latitude
Unknown
Longitude
Unknown
Altitude
Unknown
Speed
Unknown
Apparent Right ascension
Unknown
Apparent Declination
Unknown
Sunlit
N/A
Visualization observer readout
Local Sidereal Time
12:36:12
Azimuth
Unknown
Elevation
Unknown
Doppler factor
Unknown
Orbital elements
Apogee altitude
1,292.216 km
Perigee altitude
1,243.036 km
Semi-major axis
7,645.763 km
Eccentricity
0.00322
Inclination
90.2283°
RAAN
355.4155°
Arg. of periapsis
174.7194°
True anomaly
211.58199°
Mean anomaly
211.7754°
Eccentric anomaly
211.67863°
Mean motion
3.24647 °/min
Orbital period
110.89 mins
BSTAR
0.0018227
Loading maneuver chart data...
Computing Atmospheric mass density...
Loading historical data...
Loading historical data...
Loading historical data...
Loading historical data...
Loading historical data...
Loading historical data...
Loading historical data...

Documentation

Showing up to 5 results
|